TimeCST,TemperatureF,Dew PointF,Humidity,Sea Level PressureIn,VisibilityMPH,Wind Direction,Wind SpeedMPH,Gust SpeedMPH,PrecipitationIn,Events,Conditions,WindDirDegrees,DateUTC
12:53 AM,28.0,12.0,51,30.34,10.0,ENE,3.5,-,N/A,,Clear,60,2013-02-20 06:53:00
1:53 AM,27.0,12.9,56,30.33,10.0,ENE,4.6,-,N/A,,Clear,60,2013-02-20 07:53:00
2:53 AM,26.1,9.0,49,30.31,10.0,ENE,9.2,-,N/A,,Clear,60,2013-02-20 08:53:00
3:53 AM,25.0,9.0,51,30.29,10.0,ENE,8.1,-,N/A,,Clear,70,2013-02-20 09:53:00
4:53 AM,26.1,10.9,53,30.32,10.0,East,6.9,-,N/A,,Clear,80,2013-02-20 10:53:00
5:53 AM,26.1,9.0,49,30.32,10.0,East,11.5,-,N/A,,Clear,80,2013-02-20 11:53:00
6:53 AM,26.1,10.0,51,30.33,10.0,East,6.9,-,N/A,,Clear,90,2013-02-20 12:53:00
7:53 AM,26.1,8.1,47,30.35,10.0,East,6.9,-,N/A,,Scattered Clouds,100,2013-02-20 13:53:00
8:53 AM,27.0,9.0,47,30.35,10.0,East,6.9,-,N/A,,Overcast,80,2013-02-20 14:53:00
9:53 AM,28.0,10.0,47,30.34,10.0,ENE,5.8,-,N/A,,Overcast,60,2013-02-20 15:53:00
10:53 AM,28.9,10.0,45,30.34,10.0,ENE,6.9,-,N/A,,Overcast,60,2013-02-20 16:53:00
11:53 AM,30.0,10.9,45,30.30,10.0,East,9.2,-,N/A,,Overcast,80,2013-02-20 17:53:00
12:53 PM,32.0,12.0,44,30.28,10.0,East,8.1,-,N/A,,Overcast,90,2013-02-20 18:53:00
1:53 PM,33.1,12.0,42,30.24,10.0,East,5.8,-,N/A,,Overcast,80,2013-02-20 19:53:00
2:53 PM,34.0,14.0,44,30.20,10.0,NE,9.2,-,N/A,,Overcast,50,2013-02-20 20:53:00
3:53 PM,34.0,12.9,42,30.19,10.0,East,9.2,-,N/A,,Overcast,80,2013-02-20 21:53:00
4:53 PM,35.6,12.2,38,30.13,10.0,East,10.4,-,N/A,,Overcast,90,2013-02-20 22:53:00
5:53 PM,33.1,10.9,40,30.15,10.0,East,10.4,-,N/A,,Scattered Clouds,90,2013-02-20 23:53:00
6:53 PM,33.1,12.0,42,30.15,10.0,East,6.9,-,N/A,,Scattered Clouds,80,2013-02-21 00:53:00
7:53 PM,33.1,14.0,46,30.14,10.0,ENE,8.1,-,N/A,,Overcast,70,2013-02-21 01:53:00
8:53 PM,33.8,10.4,38,30.09,10.0,East,13.8,20.7,N/A,,Overcast,80,2013-02-21 02:53:00
9:53 PM,33.1,12.9,43,30.12,8.0,East,12.7,18.4,0.00,Snow,Light Snow,80,2013-02-21 03:53:00
10:08 PM,33.8,12.2,41,30.10,10.0,East,12.7,29.9,0.00,Rain,Light Freezing Rain,80,2013-02-21 04:08:00
10:53 PM,32.0,15.1,50,30.12,10.0,ESE,10.4,41.4,0.00,Rain,Light Freezing Rain,110,2013-02-21 04:53:00
11:21 PM,32.0,17.6,55,30.10,10.0,East,15.0,84.0,0.00,,Overcast,90,2013-02-21 05:21:00
11:32 PM,32.0,17.6,55,30.10,10.0,East,9.2,-,0.00,Rain,Light Freezing Rain,80,2013-02-21 05:32:00
11:53 PM,30.9,21.0,67,30.10,8.0,East,12.7,-,0.01,Rain,Light Freezing Rain,100,2013-02-21 05:53:00